Weather History for Montgomery, AL

Change the Weather History Date:

Monday, February 18, 2013

  Actual Average Record
Temperature  
Mean Temperature 48 °F 51 °F  
Max Temperature 66 °F 63 °F 80 °F (2000)
Min Temperature 30 °F 40 °F 14 °F (1958)
Degree Days  
Heating Degree Days 17 14  
Month to date heating degree days 267 284  
Since 1 July heating degree days 1356 1746  
Moisture  
Dew Point 31 °F    
Average Humidity 57    
Maximum Humidity 85    
Minimum Humidity 28    
Precipitation  
Precipitation 0.00 in 0.18 in 2.28 in (1961)
Month to date precipitation 8.22 3.39  
Year to date precipitation 11.63 8.04  
Snow  
Snow 0.00 in 0.00 in - ()
Month to date snowfall 0.0 0.0  
Since 1 July snowfall 0.0 0.1  
Snow Depth 0.00 in    
Sea Level Pressure  
Sea Level Pressure 30.24 in    
Wind  
Wind Speed 9 mph (SE)    
Max Wind Speed 20 mph    
Max Gust Speed 26 mph    
Visibility 10 miles    
Events      
T = Trace of Precipitation, MM = Missing Value Source: NWS Daily Summary

Daily Weather History Graph

Daily Weather History Graph

Search for Another Location

Airport:

Trip Planner

Search our weather history database for the weather conditions in past years. The results will help you decide how hot, cold, wet, or windy it might be!

Date:

Astronomy

Feb. 18, 2013 Rise Set
Actual Time 6:24 AM CST 5:34 PM CST
Civil Twilight 6:00 AM CST 5:59 PM CST
Nautical Twilight 5:31 AM CST 6:28 PM CST
Astronomical Twilight 5:02 AM CST 6:56 PM CST
Moon 11:29 AM CST (2/18) 12:55 AM CST (2/18)
Length of Visible Light 11h 59m
Length of Day
11h 09m
First Quarter, 58% of the Moon is Illuminated
Feb 18
First Quarter
Feb 25
Full
Mar 4
Last Quarter
Mar 11
New
Mar 19
First Quarter

Hourly Weather History & Observations

Time (CST) Temp. Windchill Dew Point Humidity Pressure Visibility Wind Dir Wind Speed Gust Speed Precip Events Conditions
12:53 AM 36.0 °F 33.3 °F 24.1 °F 62% 30.31 in 10.0 mi South 3.5 mph - N/A   Clear
1:53 AM 35.1 °F - 25.0 °F 67% 30.30 in 10.0 mi Calm Calm - N/A   Clear
2:53 AM 32.0 °F - 26.1 °F 79% 30.30 in 10.0 mi Calm Calm - N/A   Clear
3:53 AM 30.9 °F 27.5 °F 25.0 °F 79% 30.30 in 10.0 mi East 3.5 mph - N/A   Clear
4:53 AM 32.0 °F 28.7 °F 25.0 °F 75% 30.31 in 10.0 mi ENE 3.5 mph - N/A   Clear
5:53 AM 30.2 °F - 26.6 °F 86% 30.32 in 10.0 mi Calm Calm - N/A   Clear
6:53 AM 32.0 °F 27.5 °F 27.0 °F 82% 30.33 in 10.0 mi East 4.6 mph - N/A   Clear
7:53 AM 39.2 °F 37.0 °F 30.2 °F 70% 30.34 in 10.0 mi ESE 3.5 mph - N/A   Clear
8:53 AM 48.9 °F - 32.0 °F 52% 30.35 in 10.0 mi SSE 8.1 mph - N/A   Clear
9:53 AM 55.9 °F - 34.0 °F 44% 30.34 in 10.0 mi SSE 6.9 mph - N/A   Clear
10:53 AM 60.1 °F - 30.0 °F 32% 30.32 in 10.0 mi South 12.7 mph - N/A   Clear
11:53 AM 61.0 °F - 30.9 °F 32% 30.29 in 10.0 mi SSE 10.4 mph - N/A   Clear
12:53 PM 63.0 °F - 30.9 °F 30% 30.25 in 10.0 mi SSE 12.7 mph 20.7 mph N/A   Clear
1:53 PM 64.9 °F - 30.9 °F 28% 30.22 in 10.0 mi SSE 13.8 mph 19.6 mph N/A   Clear
2:53 PM 64.9 °F - 30.0 °F 27% 30.20 in 10.0 mi SSE 16.1 mph 24.2 mph N/A   Clear
3:53 PM 62.1 °F - 30.9 °F 31% 30.18 in 10.0 mi SSE 15.0 mph - N/A   Clear
4:53 PM 62.1 °F - 32.0 °F 32% 30.16 in 10.0 mi SSE 13.8 mph 20.7 mph N/A   Overcast
5:53 PM 57.0 °F - 33.1 °F 40% 30.15 in 10.0 mi SE 9.2 mph 18.4 mph N/A   Partly Cloudy
6:53 PM 55.0 °F - 33.1 °F 43% 30.16 in 10.0 mi SE 6.9 mph - N/A   Scattered Clouds
7:53 PM 55.9 °F - 37.0 °F 49% 30.16 in 10.0 mi South 13.8 mph 18.4 mph N/A   Overcast
8:53 PM 55.0 °F - 35.1 °F 47% 30.14 in 10.0 mi SSE 12.7 mph - N/A   Overcast
9:53 PM 54.0 °F - 36.0 °F 51% 30.12 in 10.0 mi SSE 13.8 mph 19.6 mph N/A   Overcast
10:53 PM 53.1 °F - 36.0 °F 52% 30.09 in 10.0 mi SSE 12.7 mph 23.0 mph N/A   Overcast
11:53 PM 52.0 °F - 37.9 °F 59% 30.06 in 10.0 mi SSE 11.5 mph 17.3 mph N/A   Scattered Clouds